This demonstration page uses our WeatherBlox Daily Observations layout. Learn more.

41.55636, -103.73856

Hourly Observations for December 3, 2016

Temp ( °F °C ) Dew Point ( °F °C ) Humidity (%) Winds ( mph kmh ) Pressure ( in mb ) Visibility ( mi km ) Precip ( " mm )
1:53 am 01:53 Cloudy 28 -2.2 20 -6.7 72 72 S 8 13 30.16 1022 10 16.0934 0 0
2:53 am 02:53 Cloudy 31 -0.6 21 -6.1 67 67 WSW 3 6 30.14 1021 10 16.0934 0 0
3:53 am 03:53 Cloudy 27 -2.8 21 -6.1 78 78 W 5 7 30.13 1020 10 16.0934 0 0
4:53 am 04:53 Clear 20 -6.7 16 -8.9 85 85 Calm 30.13 1020 10 16.0934 0 0
5:53 am 05:53 Clear 17 -8.3 13 -10.6 84 84 ENE 5 7 30.14 1021 10 16.0934 0 0
6:53 am 06:53 Clear 13 -10.6 9 -12.8 84 84 Calm 30.17 1022 10 16.0934 0 0
7:53 am 07:53 Sunny 19 -7.2 13 -10.6 77 77 E 6 9 30.13 1020 10 16.0934 0 0
8:53 am 08:53 Sunny 28 -2.2 15 -9.4 58 58 SSE 3 6 30.09 1019 10 16.0934 0 0
9:53 am 09:53 Sunny 39 3.9 10 -12.2 30 30 W 15 24 30.06 1018 10 16.0934 0 0
10:53 am 10:53 Sunny 42 5.6 11 -11.7 28 28 WNW 17 28 30.04 1017 10 16.0934 0 0
11:53 am 11:53 Sunny 43 6.1 10 -12.2 26 26 W 20 31 30.01 1016 10 16.0934 0 0
12:53 pm 12:53 Partly Cloudy 43 6.1 11 -11.7 27 27 W 12 19 29.99 1016 10 16.0934 0 0
1:53 pm 13:53 Sunny 44 6.7 11 -11.7 26 26 W 18 30 29.97 1015 10 16.0934 0 0
2:53 pm 14:53 Partly Cloudy 42 5.6 13 -10.6 30 30 W 21 33 29.98 1015 10 16.0934 0 0
3:53 pm 15:53 Mostly Cloudy 39 4 12 -11 33 33 W 21 33 30 1016 10 16.0934 0 0
4:53 pm 16:53 Cloudy 37 2.8 13 -10.6 37 37 WNW 14 22 30.06 1018 10 16.0934 0 0
5:53 pm 17:53 Cloudy 36 2.2 13 -10.6 39 39 W 13 20 30.09 1019 10 16.0934 0 0
6:53 pm 18:53 Cloudy 35 1.7 14 -10 42 42 WNW 13 20 30.11 1020 10 16.0934 0 0
7:53 pm 19:53 Clear 30 -1.1 14 -10 51 51 WNW 8 13 30.11 1020 10 16.0934 0 0
8:53 pm 20:53 Mostly Cloudy 26 -3.3 13 -10.6 57 57 NW 7 11 30.11 1020 10 16.0934 0 0
9:53 pm 21:53 Partly Cloudy 23 -5 12 -11 63 63 NW 7 11 30.18 1022 10 16.0934 0 0
10:53 pm 22:53 Partly Cloudy 23 -5 13 -10.6 65 65 NNW 6 9 30.07 1018 10 16.0934 0 0
11:53 pm 23:53 Mostly Clear 20 -6.7 12 -11.1 71 71 NNW 7 11 30.09 1019 10 16.0934 0 0

Powered by AerisWeather